Regional Weather Roundup
Issued by NWS

Home | Current Version | Previous Version | Text Only | Print | Product List | Glossary Off
Versions: 1 2 3 4 5 6 7 8 9 10 11 12 13 14 15 16 17 18 19 20 21 22 23 24 25 26 27 28 29 30 31 32 33 34 35 36 37 38 39 40 41 42 43 44 45 46 47 48 49 50

000
ASUS43 KMKX 240800
RWRWI

WISCONSIN REGIONAL WEATHER ROUNDUP
NATIONAL WEATHER SERVICE MILWAUKEE/SULLIVAN WI
300 AM CDT WED MAY 24 2017

NOTE: "FAIR" INDICATES FEW OR NO CLOUDS BELOW 12,000 FEET WITH NO
SIGNIFICANT WEATHER AND/OR OBSTRUCTIONS TO VISIBILITY.

WIZ001-002-006>008-014>016-023>028-240900-
NORTHWEST WISCONSIN

CITY           SKY/WX    TMP DP  RH WIND       PRES   REMARKS
SUPERIOR ARPT  NOT AVBL
ASHLAND        CLOUDY    46  43  89 NE3       29.84F
HAYWARD        CLOUDY    46  42  86 N9        29.81F
SIREN          CLOUDY    46  43  90 NE3       29.83F
CUMBERLAND     CLOUDY    43  41  93 N12       29.80F
RICE LAKE      CLOUDY    46  42  88 N16       29.80F
CHETEK         CLOUDY    46  44  92 N6        29.79S
LADYSMITH      MOCLDY    45  43  93 N5        29.79F
EAU CLAIRE     CLOUDY    48  44  86 N7        29.75S
MENOMONIE      CLOUDY    49  45  87 N7        29.78S
NEW RICHMOND   CLEAR     45  43  93 N9        29.80S
OSCEOLA        CLEAR     46  46 100 N9        29.83F
$$

WIZ003>005-009-010-017-018-240900-
NORTH CENTRAL WISCONSIN

CITY           SKY/WX    TMP DP  RH WIND       PRES   REMARKS
MANITOWISH WTR CLOUDY    44  44 100 NE5       29.79F
ARBOR VITAE    CLOUDY    46  43  90 NE7G16    29.77F
WOODRUFF       CLOUDY    46  43  90 NE7G16    29.77F
RHINELANDER    CLOUDY    47  44  90 VRB6      29.77S
EAGLE RIVER    CLOUDY    45  43  93 NE6       29.77F
LAND O LAKES   CLOUDY    45  43  93 NE7       29.80F
PHILLIPS       CLOUDY    46  44  91 NE9       29.77F
TOMAHAWK       CLOUDY    46  42  86 N3        29.77S
MEDFORD        CLOUDY    47  44  88 NE7       29.74F
MERRILL        DRIZZLE   48  47  98 NE6       29.75F
$$

WIZ029-030-035-036-043>047-240900-
CENTRAL WISCONSIN

CITY           SKY/WX    TMP DP  RH WIND       PRES   REMARKS
WAUSAU         LGT RAIN  48  46  93 N3        29.72S
MOSINEE        LGT RAIN  46  46 100 N7        29.74S
MARSHFIELD     CLOUDY    50  46  86 NE6       29.72S
STEVENS POINT  CLOUDY    47  47 100 NE12      29.72F
WAUPACA        CLOUDY    51  49  92 NE6       29.71F
WAUTOMA        LGT RAIN  50  49  96 NE13      29.70F
WISC RAPIDS    CLOUDY    50  47  89 NE7       29.73S
CAMP DOUGLAS   DRIZZLE   49  49  99 NW5       29.71S FOG
$$

WIZ011>013-019>022-031-037>040-048>050-240900-
NORTHEAST WISCONSIN

CITY           SKY/WX    TMP DP  RH WIND       PRES   REMARKS
ANTIGO         DRIZZLE   46  44  95 NE7       29.74S
SHAWANO        LGT RAIN  50  47  89 NE10      29.73F
OCONTO         CLOUDY    47  46  97 NE5       29.72F
STURGEON BAY   LGT RAIN  48  46  93 NE8       29.71F
GREEN BAY      LGT RAIN  49  49 100 NE14      29.70F FOG
MANITOWOC      NOT AVBL
APPLETON       CLOUDY    48  46  93 NE15G22   29.68F
CLINTONVILLE   CLOUDY    46  46 100 NE9       29.71F
OSHKOSH        CLOUDY    50  48  93 NE10      29.68F FOG
$$

WIZ032>034-041-042-053>061-240900-
SOUTHWEST WISCONSIN

CITY           SKY/WX    TMP DP  RH WIND       PRES   REMARKS
LA CROSSE      CLOUDY    53  48  83 N3        29.72S
SPARTA         LGT RAIN  48  48 100 N5        29.73S
VIROQUA        CLOUDY    49  47  95 MISG      29.70F
BOSCOBEL       CLOUDY    53  50  89 NE3       29.68S
PRAIRIE DU CHI CLOUDY    53  48  84 N5        29.68S
PLATTEVILLE    CLOUDY    53  53 100 NE10      29.66S
$$

WIZ056-057-062-063-064-067-068-240900-
SOUTH CENTRAL WISCONSIN

CITY           SKY/WX    TMP DP  RH WIND       PRES   REMARKS
REEDSBURG      CLOUDY    49  49 100 NE8       29.69F
BARABOO/DELLS  CLOUDY    48  47  93 NE7       29.69F
LONE ROCK      CLOUDY    51  48  89 N7        29.68S
MINERAL POINT  CLOUDY    52  52 100 NE9       29.66F
MADISON        CLOUDY    50  48  93 N8        29.67F
MIDDLETON      CLOUDY    51  51 100 NE10      29.68S
WATERTOWN      CLOUDY    48  48 100 NE5       29.67F FOG
MONROE         CLOUDY    50  50 100 NE7       29.65F FOG
JANESVILLE     CLOUDY    52  52 100 NE7       29.65F
$$

WIZ051-052-058>065-066-070>072-240900-
SOUTHEAST WISCONSIN

CITY           SKY/WX    TMP DP  RH WIND       PRES   REMARKS
MILWAUKEE      LGT RAIN  48  48 100 N7        29.66F VSB 1/2
WAUKESHA       RAIN      46  46 100 NE3       29.68F
MILWAUKEE/TIMM DRIZZLE   46  45  93 N5        29.68F
RACINE         LGT RAIN  47  46  97 N7        29.66F
KENOSHA        CLOUDY    49  48  97 NE5       29.64F
FOND DU LAC    CLOUDY    50  47  89 E7        29.68F
SHEBOYGAN      CLOUDY    47  47 100 NE9       29.68F FOG
WEST BEND      FOG       46  46 100 NE3       29.68F VSB 1/4
JUNEAU         CLOUDY    48  47  97 CALM      29.69F FOG
$$

LSZ147-162-240900-
LAKE SUPERIOR

STATION/POSITION TIME  TEMP    WIND        PRES    WAVE
                       AIR SEA DIR/SP/G            HT/PER
                 (UTC) (F)     (DEG/KT/KT) (MB)    (FT/S)
W MID LAKE BUOY  0650   41 37   10/ 12/ 12 1011.2F   0
DEVILS ISLAND    0700   44      10/ 10/ 11 1011.3F
SAXON HARBOR     0740   43      CALM  /  2 1010.2F
$$

LMZ867-665-643>646-240900-
LAKE MICHIGAN

STATION/POSITION TIME  TEMP    WIND        PRES    WAVE
                       AIR SEA DIR/SP/G            HT/PER
                 (UTC) (F)     (DEG/KT/KT) (MB)    (FT/S)
CHAMBERS ISLAND  0740   47     360/ 14/ 16 1006.1F
N MID LAKE BUOY  0650   42 39   30/ 12/ 12 1007.4F
NORTHPORT PIER   0740   46     350/  9/ 11 1006.8S
KEWAUNEE LAKESHO 0730   47      20/ 11/ 15 1005.5F
SHEBOYGAN LAKESH 0700   45      10/ 11/ 12 1005.5F
PORT WASHINGTON  0730   48     330/  2/  4 1006.1F
ATWATER BUOY     0609   45     360/ 10/ 14 1005.5F
MILWAUKEE LAKESH 0730   46     340/  5/  7   N/A
S MID LAKE BUOY  0650   47 45   20/  6/  6 1004.4F   0
KENOSHA   LAKESH 0700   47      20/ 10/ 10 1004.7
$$

TC  - TEMPERATURE IN CELSIUS
VSB - VISIBILITY IN STATUTE MILES
WCI - WIND CHILL INDEX
HX  - HEAT INDEX





USA.gov is the U.S. government's official web portal to all federal, state and local government web resources and services.